This demonstration page uses our WeatherBlox Daily Observations layout. Learn more.

Left ArrowRight Arrow

Hourly Observations for April 27, 2017

Temp ( °F °C ) Dew Point ( °F °C ) Humidity (%) Winds ( mph kmh ) Pressure ( in mb ) Visibility ( mi km ) Precip ( " mm )
12:53 am 00:53 Cloudy with Light Rain 43 6.1 39 3.9 86 86 NE 8 13 29.61 1003 10 16 0.00 0.03
1:53 am 01:53 Cloudy 42 5.6 40 4.4 92 92 ENE 6 9 29.61 1003 10 16 0.00 0.03
2:53 am 02:53 Cloudy 41 5 39 3.9 93 93 E 8 13 29.60 1002 10 16 0.00 0.00
3:53 am 03:53 Cloudy 40 4.4 38 3.3 93 93 E 7 11 29.60 1003 10 16 0.00 0.00
4:22 am 04:22 Cloudy 41 5 39 4 93 93 ENE 5 7 29.65 1004 10 16 0.00 0.00
4:53 am 04:53 Cloudy 41 5 39 3.9 93 93 Calm 29.61 1003 10 16 0.00 0.00
5:36 am 05:36 Cloudy with Light Rain 41 5 39 3.9 93 93 E 3 6 29.65 1004 8 13 0.00 0.03
5:53 am 05:53 Cloudy 41 5 40 4.4 96 96 SE 3 6 29.62 1003 10 16 0.01 0.25
6:36 am 06:36 Cloudy 42 5.6 41 5 96 96 Calm 29.62 1003 10 16 0.00 0.00
6:53 am 06:53 Cloudy 41 5 40 4.4 96 96 Calm 29.62 1003 10 16 0.00 0.00
7:13 am 07:13 Cloudy 41 5 40 4.4 96 96 W 5 7 29.65 1004 10 16 0.00 0.00
7:53 am 07:53 Cloudy 42 5.6 41 5 96 96 W 7 11 29.64 1004 10 16 0.00 0.00
8:53 am 08:53 Cloudy 43 6.1 40 4.4 89 89 W 7 11 29.65 1004 10 16 0.00 0.00
9:07 am 09:07 Cloudy 43 6.1 40 4.4 89 89 W 6 9 29.65 1004 10 16 0.00 0.00
9:53 am 09:53 Cloudy 45 7.2 40 4.4 83 83 NW 8 13 29.66 1005 10 16 0.00 0.00
10:53 am 10:53 Cloudy 44 6.7 40 4.4 85 85 N 12 19 29.67 1005 10 16 0.00 0.00
11:04 am 11:04 Cloudy 45 7 39 4 81 81 NNE 13 20 29.68 1005 10 16 0.00 0.00
11:16 am 11:16 Cloudy with Light Rain 43 6 39 4 87 87 NNE 12 19 29.71 1006 10 16 0.00 0.00
11:53 am 11:53 Cloudy 44 6.7 40 4.4 85 85 NE 10 17 29.70 1006 10 16 0.00 0.03
12:04 pm 12:04 Cloudy 45 7 39 4 81 81 NE 13 20 29.71 1006 10 16 0.00 0.00
12:53 pm 12:53 Cloudy 43 6.1 39 3.9 86 86 NNE 10 17 29.71 1006 10 16 0.00 0.00
1:53 pm 13:53 Cloudy 43 6.1 38 3.3 82 82 NE 8 13 29.72 1007 10 16 0.00 0.00
2:53 pm 14:53 Cloudy 43 6.1 37 2.8 80 80 N 13 20 29.74 1007 10 16 0.00 0.00
3:11 pm 15:11 Cloudy 44 6.7 38 3.3 79 79 N 10 17 29.77 1008 10 16 0.00 0.00
3:53 pm 15:53 Cloudy 45 7.2 37 2.8 74 74 NNE 12 19 29.75 1008 10 16 0.00 0.00
4:53 pm 16:53 Cloudy 47 8.3 38 3.3 71 71 NNE 12 19 29.76 1008 10 16 0.00 0.00
5:53 pm 17:53 Cloudy 46 7.8 38 3.3 73 73 NNE 10 17 29.79 1009 10 16 0.00 0.00
6:19 pm 18:19 Cloudy 46 7.8 38 3.3 73 73 NE 8 13 29.77 1008 10 16 0.00 0.00
6:53 pm 18:53 Cloudy 48 8.9 38 3.3 68 68 NE 12 19 29.80 1009 10 16 0.00 0.00
7:05 pm 19:05 Mostly Cloudy 46 7.8 37 2.8 71 71 NE 10 17 29.77 1008 10 16 0.00 0.00
7:53 pm 19:53 Sunny 44 6.7 37 2.8 76 76 ENE 7 11 29.82 1010 10 16 0.00 0.00
8:53 pm 20:53 Clear 40 4.4 35 1.7 83 83 NE 5 7 29.85 1011 10 16 0.00 0.00
9:53 pm 21:53 Mostly Clear 38 3.3 35 1.7 89 89 NE 6 9 29.87 1012 10 16 0.00 0.00
10:53 pm 22:53 Mostly Cloudy 38 3.3 35 1.7 89 89 ENE 5 7 29.90 1012 10 16 0.00 0.00
11:53 pm 23:53 Partly Cloudy 33 0.6 32 0 96 96 Calm 29.91 1013 10 16 0.00 0.00

Powered by AerisWeather